Weather History for Fort Leonard Wood, MO

Change the Weather History Date:

Tuesday, December 4, 2012

  Actual Average Record
Temperature  
Mean Temperature 51 °F -  
Max Temperature 64 °F 47 °F 73 °F (2001)
Min Temperature 38 °F 34 °F 15 °F (2006)
Degree Days  
Heating Degree Days 14    
Growing Degree Days 1 (Base 50)    
Moisture  
Dew Point 51 °F    
Average Humidity 91    
Maximum Humidity 100    
Minimum Humidity 42    
Precipitation  
Precipitation 0.78 in - - ()
Sea Level Pressure  
Sea Level Pressure 30.06 in    
Wind  
Wind Speed 7 mph (NNW)    
Max Wind Speed 15 mph    
Max Gust Speed 22 mph    
Visibility 8 miles    
Events Rain    
Averages and records for this station are not official NWS values.
T = Trace of Precipitation, MM = Missing Value Source: NWS Daily Summary

Daily Weather History Graph

Daily Weather History Graph

Search for Another Location

Airport:

Trip Planner

Search our weather history database for the weather conditions in past years. The results will help you decide how hot, cold, wet, or windy it might be!

Date:

Astronomy

Dec. 04, 2012 Rise Set
Actual Time 7:08 AM CST 4:49 PM CST
Civil Twilight 6:39 AM CST 5:18 PM CST
Nautical Twilight 6:06 AM CST 5:51 PM CST
Astronomical Twilight 5:34 AM CST 6:22 PM CST
Moon 10:33 PM CST (12/4) 11:06 AM CST (12/4)
Length of Visible Light 10h 39m
Length of Day
9h 41m
Waning Gibbous, 69% of the Moon is Illuminated
Dec 4
Waning Gibbous
Dec 6
Last Quarter
Dec 13
New
Dec 19
First Quarter
Dec 28
Full

Hourly Weather History & Observations

Time (CST) Temp. Dew Point Humidity Pressure Visibility Wind Dir Wind Speed Gust Speed Precip Events Conditions
12:38 AM 64.4 °F 59.0 °F 83% 29.93 in 10.0 mi WNW 6.9 mph - N/A   Overcast
12:42 AM 64.4 °F 59.0 °F 83% 29.94 in 10.0 mi WNW 10.4 mph - N/A Rain Light Rain
12:51 AM 62.6 °F 60.8 °F 94% 29.94 in 7.0 mi West 11.5 mph 21.9 mph N/A Rain Light Rain
12:55 AM 61.5 °F 60.1 °F 95% 29.95 in 5.0 mi WNW 11.5 mph 21.9 mph 0.02 in Rain Light Rain
12:56 AM 60.8 °F 60.8 °F 100% 29.95 in 5.0 mi WNW 9.2 mph 21.9 mph N/A Rain Light Rain
12:57 AM 60.8 °F 60.8 °F 100% 29.95 in 5.0 mi WNW 9.2 mph 21.9 mph N/A Rain Light Rain
1:02 AM 60.8 °F 60.8 °F 100% 29.95 in 4.0 mi NW 6.9 mph - N/A Rain Heavy Rain
1:13 AM 60.8 °F 60.8 °F 100% 29.96 in 2.5 mi West 4.6 mph - N/A Rain Rain
1:17 AM 59.0 °F 59.0 °F 100% 29.96 in 1.8 mi WNW 3.5 mph - N/A Rain Heavy Rain
1:18 AM 59.0 °F 59.0 °F 100% 29.96 in 1.5 mi WNW 3.5 mph - N/A Rain Heavy Rain
1:20 AM 59.0 °F 59.0 °F 100% 29.96 in 1.5 mi West 3.5 mph - N/A Rain Heavy Rain
1:21 AM 59.0 °F 59.0 °F 100% 29.96 in 1.5 mi Calm Calm - N/A Rain Rain
1:22 AM 59.0 °F 59.0 °F 100% 29.96 in 1.8 mi Calm Calm - N/A Rain Light Rain
1:24 AM 59.0 °F 59.0 °F 100% 29.96 in 2.0 mi Variable 3.5 mph - N/A Rain Light Rain
1:25 AM 59.0 °F 59.0 °F 100% 29.96 in 2.5 mi WNW 4.6 mph - N/A Rain Light Rain
1:26 AM 59.0 °F 59.0 °F 100% 29.96 in 2.5 mi WNW 4.6 mph - N/A Rain Light Rain
1:27 AM 59.0 °F 59.0 °F 100% 29.96 in 4.0 mi WNW 4.6 mph - N/A Rain Light Rain
1:53 AM 59.0 °F 59.0 °F 100% 29.97 in 7.0 mi Variable 5.8 mph - N/A Rain Light Rain
1:55 AM 58.5 °F 58.5 °F 100% 29.97 in 8.0 mi NW 5.8 mph - 0.26 in Rain Light Rain
2:13 AM 57.2 °F 57.2 °F 100% 29.98 in 10.0 mi NW 6.9 mph - N/A Rain Light Rain
2:20 AM 57.2 °F 57.2 °F 100% 29.98 in 10.0 mi NNW 5.8 mph - N/A Rain Light Rain
2:35 AM 55.4 °F 55.4 °F 100% 29.98 in 10.0 mi NW 6.9 mph - N/A Rain Light Rain
2:38 AM 55.4 °F 55.4 °F 100% 29.98 in 10.0 mi NNW 4.6 mph - N/A   Overcast
2:48 AM 55.4 °F 55.4 °F 100% 29.98 in 10.0 mi NNW 8.1 mph - N/A Rain Light Rain
2:55 AM 55.2 °F 55.2 °F 100% 29.99 in 10.0 mi NW 5.8 mph - 0.03 in Rain Light Rain
3:14 AM 55.4 °F 55.4 °F 100% 30.00 in 5.0 mi NW 3.5 mph - N/A Rain Rain
3:36 AM 53.6 °F 53.6 °F 100% 30.00 in 4.0 mi NNW 8.1 mph - N/A Rain Heavy Rain
3:40 AM 53.6 °F 53.6 °F 100% 30.00 in 4.0 mi NNW 9.2 mph - N/A Rain Heavy Rain
3:41 AM 53.6 °F 53.6 °F 100% 30.00 in 4.0 mi NNW 9.2 mph - N/A Rain Heavy Rain
3:43 AM 53.6 °F 53.6 °F 100% 30.00 in 4.0 mi NNW 8.1 mph - N/A Rain Heavy Rain
3:52 AM 53.6 °F 53.6 °F 100% 30.00 in 4.0 mi NNW 6.9 mph - N/A Rain Heavy Rain
3:55 AM 54.0 °F 54.0 °F 100% 30.00 in 4.0 mi NW 6.9 mph - 0.23 in Rain Rain
4:12 AM 53.6 °F 53.6 °F 100% 30.01 in 5.0 mi Variable 4.6 mph - N/A Rain Rain
4:13 AM 53.6 °F 53.6 °F 100% 30.01 in 5.0 mi NW 4.6 mph - N/A Rain Rain
4:14 AM 53.6 °F 53.6 °F 100% 30.01 in 5.0 mi NW 5.8 mph - N/A Rain Rain
4:18 AM 53.6 °F 53.6 °F 100% 30.01 in 5.0 mi NNW 5.8 mph - N/A Rain Rain
4:48 AM 53.6 °F 53.6 °F 100% 30.04 in 10.0 mi North 12.7 mph - N/A Rain Rain
4:55 AM 52.5 °F 52.5 °F 100% 30.04 in 9.0 mi NNW 10.4 mph - 0.15 in Rain Rain
5:09 AM 51.8 °F 51.8 °F 100% 30.04 in 10.0 mi North 15.0 mph 21.9 mph N/A Rain Light Rain
5:15 AM 50.0 °F 50.0 °F 100% 30.04 in 10.0 mi North 13.8 mph 21.9 mph N/A Rain Light Rain
5:16 AM 50.0 °F 50.0 °F 100% 30.04 in 10.0 mi North 12.7 mph 21.9 mph N/A Rain Light Rain
5:20 AM 50.0 °F 50.0 °F 100% 30.04 in 10.0 mi North 12.7 mph - N/A Rain Light Rain
5:34 AM 50.0 °F 50.0 °F 100% 30.05 in 10.0 mi North 10.4 mph 18.4 mph N/A Rain Light Rain
5:55 AM 49.5 °F 49.1 °F 99% 30.06 in 10.0 mi NNE 5.8 mph - 0.04 in Rain Rain
6:04 AM 50.0 °F 48.2 °F 94% 30.06 in 10.0 mi NNE 9.2 mph - N/A Rain Rain
6:51 AM 50.0 °F 48.2 °F 94% 30.11 in 10.0 mi North 6.9 mph - N/A   Overcast
6:55 AM 49.3 °F 48.9 °F 99% 30.11 in 10.0 mi North 5.8 mph - 0.05 in   Overcast
7:03 AM 50.0 °F 50.0 °F 100% 30.11 in 10.0 mi North 6.9 mph - N/A   Overcast
7:04 AM 50.0 °F 50.0 °F 100% 30.11 in 10.0 mi North 6.9 mph - N/A   Light Drizzle
7:12 AM 50.0 °F 50.0 °F 100% 30.12 in 10.0 mi North 5.8 mph - N/A   Light Drizzle
7:16 AM 50.0 °F 50.0 °F 100% 30.12 in 10.0 mi NNW 5.8 mph - N/A   Overcast
7:55 AM 49.5 °F 49.1 °F 99% 30.13 in 10.0 mi North 5.8 mph - 0.00 in   Overcast
8:35 AM 50.0 °F 48.2 °F 94% 30.14 in 10.0 mi North 8.1 mph - N/A   Overcast
8:55 AM 49.3 °F 47.5 °F 94% 30.15 in 10.0 mi NNW 8.1 mph - N/A   Overcast
9:55 AM 48.7 °F 45.0 °F 87% 30.18 in 10.0 mi North 5.8 mph - N/A   Overcast
10:55 AM 49.8 °F 44.2 °F 81% 30.18 in 10.0 mi North 11.5 mph - N/A   Mostly Cloudy
11:55 AM 51.1 °F 40.6 °F 67% 30.18 in 10.0 mi North 11.5 mph - N/A   Clear
12:55 PM 53.1 °F 37.6 °F 56% 30.19 in 10.0 mi North 6.9 mph - N/A   Clear
1:55 PM 54.5 °F 35.1 °F 48% 30.19 in 10.0 mi NNW 12.7 mph - N/A   Clear
2:55 PM 55.9 °F 34.3 °F 44% 30.19 in 10.0 mi North 8.1 mph - N/A   Clear
3:55 PM 55.4 °F 32.4 °F 42% 30.23 in 10.0 mi North 6.9 mph - N/A   Clear
4:55 PM 51.6 °F 32.4 °F 48% 30.25 in 10.0 mi Calm Calm - N/A   Clear
5:55 PM 49.5 °F 32.0 °F 51% 30.27 in 10.0 mi Calm Calm - N/A   Clear
6:55 PM 49.5 °F 32.2 °F 51% 30.26 in 10.0 mi Calm Calm - N/A   Clear
7:55 PM 45.5 °F 34.2 °F 65% 30.28 in 10.0 mi Calm Calm - N/A   Clear
8:55 PM 45.9 °F 34.7 °F 65% 30.30 in 10.0 mi Calm Calm - N/A   Clear
9:55 PM 40.1 °F 36.1 °F 86% 30.32 in 10.0 mi Calm Calm - N/A   Clear
10:55 PM 38.8 °F 35.4 °F 88% 30.32 in 10.0 mi Calm Calm - N/A   Clear
11:55 PM 38.1 °F 34.7 °F 87% 30.33 in 10.0 mi Calm Calm - N/A   Clear